Regional Weather Roundup
Issued by NWS

Home | Current Version | Previous Version | Graphics & Text | Print | Product List | Glossary On
Versions: 1 2 3 4 5 6 7 8 9 10 11 12 13 14 15 16 17 18 19 20 21 22 23 24 25 26 27 28 29 30 31 32 33 34 35 36 37 38 39 40 41 42 43 44 45 46 47 48 49 50
000
ASUS43 KLSX 170007
RWRMO

WEATHER SUMMARY FOR MISSOURI
NATIONAL WEATHER SERVICE SPRINGFIELD MO
700 PM CDT MON OCT 16 2017

NOTE: "FAIR" INDICATES FEW OR NO CLOUDS BELOW 12,000 FEET WITH NO
       SIGNIFICANT WEATHER AND/OR OBSTRUCTIONS TO VISIBILITY.
       CURRENT SKY AND/OR WEATHER CONDITIONS ARE NOT AVAILABLE FOR
       CHILLICOTHE AND FARMINGTON.

MOZ001>031-035>038-043-044-053-054-170100-
...NORTHERN AND WESTERN MISSOURI...

CITY           SKY/WX    TMP DP  RH WIND       PRES   REMARKS
KANSAS CTY INT PTCLDY    52  43  71 S9        30.23F
6HR MIN TEMP:  52; 6HR MAX TEMP:  68;

KANSAS C DTWN  CLEAR     64  42  44 S7        30.23F
6HR MIN TEMP:  63; 6HR MAX TEMP:  70;

LEE`S SUMMIT   CLEAR     61  42  49 S8        30.26S
6HR MIN TEMP:  60; 6HR MAX TEMP:  68;

ST JOSEPH      CLEAR     60  44  55 S8        30.20F
6HR MIN TEMP:  60; 6HR MAX TEMP:  73;

CHILLICOTHE      N/A     58  43  57 S5        30.24F
6HR MIN TEMP:  58; 6HR MAX TEMP:  70;

KIRKSVILLE     CLEAR     57  40  52 S6        30.24F
6HR MIN TEMP:  57; 6HR MAX TEMP:  67;


$$
MOZ066>068-077>081-088>096-101>105-170100-
...SOUTHWEST MISSOURI...

CITY           SKY/WX    TMP DP  RH WIND       PRES   REMARKS
SPRINGFIELD    CLEAR     59  40  49 CALM      30.28F
6HR MIN TEMP:  59; 6HR MAX TEMP:  69;

JOPLIN         CLEAR     58  43  57 CALM      30.29F
6HR MIN TEMP:  58; 6HR MAX TEMP:  68;

BRANSON        CLEAR     54  43  66 CALM      30.30F

$$
MOZ032>034-039>042-045>050-055>058-069>072-170100-
...CENTRAL MISSOURI...

CITY           SKY/WX    TMP DP  RH WIND       PRES   REMARKS
COLUMBIA       CLEAR     58  41  53 S5        30.27S
6HR MIN TEMP:  58; 6HR MAX TEMP:  68;

JEFFERSON CITY CLEAR     60  42  51 CALM      30.27S
6HR MIN TEMP:  59; 6HR MAX TEMP:  68;

ROLLA          CLEAR     53  41  63 CALM      30.30S
6HR MIN TEMP:  53; 6HR MAX TEMP:  66;

SEDALIA        CLEAR     61  43  51 S5        30.28S
6HR MIN TEMP:  60; 6HR MAX TEMP:  70;

WHITEMAN AFB   CLEAR     57  42  58 S7        30.23S
WARRENSBURG    CLEAR     59  39  47 S3        30.26S
OSAGE BEACH    CLEAR     53  44  71 CALM      30.29

$$
MOZ051-052-059>065-170100-
...EAST CENTRAL MISSOURI...

CITY           SKY/WX    TMP DP  RH WIND       PRES   REMARKS
ST LOUIS INTL  CLEAR     61  38  42 S6        30.28F
6HR MIN TEMP:  61; 6HR MAX TEMP:  67;

SPIRIT OF STL  CLEAR     54  45  71 CALM      30.27F
6HR MIN TEMP:  54; 6HR MAX TEMP:  67;

ST CHARLES     CLEAR     56  40  55 S5        30.27S
6HR MIN TEMP:  56; 6HR MAX TEMP:  68;


$$
MOZ072>076-082>087-097>100-106>115-170100-
...SOUTH CENTRAL AND SOUTHEAST MISSOURI...

CITY           SKY/WX    TMP DP  RH WIND       PRES   REMARKS
CAPE GIRARDEAU CLEAR     54  38  54 CALM      30.30S
6HR MIN TEMP:  53; 6HR MAX TEMP:  66;

FARMINGTON     CLEAR     55  38  52 CALM      30.31S
6HR MIN TEMP:  53; 6HR MAX TEMP:  64;

POPLAR BLUFF   CLEAR     54  42  64 CALM      30.30R
6HR MIN TEMP:  53; 6HR MAX TEMP:  68;

WEST PLAINS    CLEAR     54  39  57 CALM      30.31S
6HR MIN TEMP:  53; 6HR MAX TEMP:  69;


$$



USA.gov is the U.S. government's official web portal to all federal, state and local government web resources and services.